(°C)
14°
13°
11°
(°C)
GB
GB
BGB
BGB
B
B
B
(km/saat)
18-36
14-31
11-25
10-22
10-21
10-21
10-21
(mm)
0
0
0
0
0
0
0
(%)
12
13
24
13
2
2
2

Güneşin açısı

/ 17.3°
sun-icon
UV 2
07:06
19:40
Hilal (161°)
19:42
04:16

55.03°K 82.6°D (UNNT) için METAR

Zaman Koşullar Sıcaklık/
Çiy noktası
Rüzgar Görünürlük Hava Bulutlar Basınç Değiştir Ham
VFR 14°C / 5°C 250º 16kt Gust 25kt >10km - Scattered Clouds 5600ft 1002 No Significant change. Runway 25: Wet or puddles, 51-100% contamination with 1mm, friction coefficient 0.55. Runway 34: deposit not reported, . UNNT 191000Z 25008G13MPS 9999 SCT056CB 14/05 Q1002 R25/290155 R34/////// NOSIG RMK QFE742/0989
VFR 13°C / 7°C 200º 8kt >10km - Scattered Clouds 4400ft 1002 No Significant change. Runway 25: Wet or puddles, 51-100% contamination with 1mm, friction coefficient 0.55. Runway 34: deposit not reported, . UNNT 190930Z 20004MPS 9999 SCT044CB 13/07 Q1002 R25/290155 R34/////// NOSIG RMK QFE742/0989
VFR 11°C / 7°C 190º 10kt >10km Light Showers Rain 3.00mm precipitation Vertical Visibility of 0ft. 1002 No Significant change. Runway 25: Wet or puddles, 51-100% contamination with 1mm, friction coefficient 0.55. Runway 34: deposit not reported, . UNNT 190900Z 19005MPS 9999 -SHRA BKN053CB 11/07 Q1002 R25/290155 R34/////// NOSIG RMK QFE742/0989
VFR 12°C / 5°C 190º 10kt 9000m Light Showers Rain 3.00mm precipitation Vertical Visibility of 0ft. 1002 No Significant change. Runway 25: Clear and dry, 51-100% contamination with <1mm, friction coefficient 0.70. Runway 34: deposit not reported, . UNNT 190830Z 19005MPS 9000 -SHRA OVC035CB 12/05 Q1002 R25/090070 R34/////// NOSIG RMK QFE742/0989
VFR 13°C / 4°C 170º 10kt >10km - Scattered Clouds 5400ft 1002 No Significant change. Runway 25: Clear and dry, 51-100% contamination with <1mm, friction coefficient 0.70. Runway 34: deposit not reported, . UNNT 190800Z 17005MPS 9999 SCT054CB 13/04 Q1002 R25/090070 R34/////// NOSIG RMK QFE742/0989
VFR 12°C / 4°C 160º 10kt >10km Light Rain 1.00mm precipitation Vertical Visibility of 0ft. 1002 No Significant change. Runway 25: Clear and dry, 51-100% contamination with <1mm, friction coefficient 0.70. Runway 34: deposit not reported, . UNNT 190730Z 16005MPS 9999 -RA NSC 12/04 Q1002 R25/090070 R34/////// NOSIG RMK QFE742/0989
VFR 12°C / 3°C 160º 14kt >10km - Clouds and Visibility OK 1003 No Significant change. Runway 25: Clear and dry, 51-100% contamination with <1mm, friction coefficient 0.70. Runway 34: deposit not reported, . UNNT 190700Z 16007MPS CAVOK 12/03 Q1003 R25/090070 R34/////// NOSIG RMK QFE742/0989
VFR 12°C / 2°C 160º 16kt >10km - Clouds and Visibility OK 1003 No Significant change. Runway 25: Clear and dry, 51-100% contamination with <1mm, friction coefficient 0.70. Runway 34: deposit not reported, . UNNT 190630Z 16008MPS CAVOK 12/02 Q1003 R25/090070 R34/////// NOSIG RMK QFE742/0990
VFR 12°C / 3°C 170º 14kt >10km - Clouds and Visibility OK 1004 No Significant change. Runway 25: Clear and dry, 51-100% contamination with <1mm, friction coefficient 0.70. Runway 34: deposit not reported, . UNNT 190600Z 17007MPS CAVOK 12/03 Q1004 R25/090070 R34/////// NOSIG RMK QFE743/0991
VFR 11°C / 3°C 170º 12kt >10km - Clouds and Visibility OK 1004 No Significant change. Runway 25: Clear and dry, 51-100% contamination with <1mm, friction coefficient 0.70. Runway 34: deposit not reported, . UNNT 190530Z 17006MPS CAVOK 11/03 Q1004 R25/090070 R34/////// NOSIG RMK QFE743/0991
VFR 11°C / 2°C 170º 12kt >10km - Clouds and Visibility OK 1005 No Significant change. Runway 25: Clear and dry, 51-100% contamination with <1mm, friction coefficient 0.70. Runway 34: deposit not reported, . UNNT 190500Z 17006MPS CAVOK 11/02 Q1005 R25/090070 R34/////// NOSIG RMK QFE744/0992
VFR 11°C / 2°C 180º 12kt >10km - Clouds and Visibility OK 1005 No Significant change. Runway 25: Clear and dry, 51-100% contamination with <1mm, friction coefficient 0.70. Runway 34: deposit not reported, . UNNT 190430Z 18006MPS CAVOK 11/02 Q1005 R25/090070 R34/////// NOSIG RMK QFE744/0992
VFR 11°C / 3°C 180º 12kt >10km - Clouds and Visibility OK 1005 No Significant change. Runway 25: Clear and dry, 51-100% contamination with <1mm, friction coefficient 0.70. Runway 34: deposit not reported, . UNNT 190400Z 18006MPS CAVOK 11/03 Q1005 R25/090070 R34/////// NOSIG RMK QFE744/0992
VFR 10°C / 3°C 190º 12kt >10km - Clouds and Visibility OK 1006 No Significant change. Runway 25: Clear and dry, 51-100% contamination with <1mm, friction coefficient 0.70. Runway 34: deposit not reported, . UNNT 190330Z 19006MPS CAVOK 10/03 Q1006 R25/090070 R34/////// NOSIG RMK QFE744/0992
VFR 10°C / 3°C 190º 10kt >10km - Clouds and Visibility OK 1006 No Significant change. Runway 25: Clear and dry, 51-100% contamination with <1mm, friction coefficient 0.70. Runway 34: deposit not reported, . UNNT 190300Z 19005MPS CAVOK 10/03 Q1006 R25/090070 R34/////// NOSIG RMK QFE744/0993
VFR 10°C / 4°C 180º 8kt >10km - Clouds and Visibility OK 1006 No Significant change. Runway 25: Clear and dry, 51-100% contamination with <1mm, friction coefficient 0.70. Runway 34: deposit not reported, . UNNT 190230Z 18004MPS CAVOK 10/04 Q1006 R25/090070 R34/////// NOSIG RMK QFE744/0993
VFR 9°C / 4°C 180º 8kt >10km - Clouds and Visibility OK 1006 No Significant change. Runway 25: Clear and dry, 51-100% contamination with <1mm, friction coefficient 0.70. Runway 34: deposit not reported, . UNNT 190200Z 18004MPS CAVOK 09/04 Q1006 R25/090070 R34/////// NOSIG RMK QFE745/0993
VFR 9°C / 5°C 170º 8kt >10km - Clouds and Visibility OK 1007 No Significant change. Runway 25: Clear and dry, 51-100% contamination with <1mm, friction coefficient 0.70. Runway 34: deposit not reported, . UNNT 190130Z 17004MPS CAVOK 09/05 Q1007 R25/090070 R34/////// NOSIG RMK QFE745/0993
VFR 8°C / 5°C 180º 6kt >10km - Clouds and Visibility OK 1007 No Significant change. Runway 25: Clear and dry, 51-100% contamination with <1mm, friction coefficient 0.70. Runway 34: deposit not reported, . UNNT 190100Z 18003MPS CAVOK 08/05 Q1007 R25/090070 R34/////// NOSIG RMK QFE745/0994
VFR 8°C / 5°C 180º 6kt >10km - Clouds and Visibility OK 1007 No Significant change. Runway 25: Clear and dry, 51-100% contamination with <1mm, friction coefficient 0.70. Runway 34: deposit not reported, . UNNT 190030Z 18003MPS CAVOK 08/05 Q1007 R25/090070 R34/////// NOSIG RMK QFE745/0994
VFR 8°C / 5°C 180º 6kt >10km - Clouds and Visibility OK 1007 No Significant change. Runway 25: Clear and dry, 51-100% contamination with <1mm, friction coefficient 0.70. Runway 34: deposit not reported, . UNNT 190000Z 18003MPS CAVOK 08/05 Q1007 R25/090070 R34/////// NOSIG RMK QFE746/0994
VFR 8°C / 5°C 190º 6kt >10km - Clouds and Visibility OK 1008 No Significant change. Runway 25: Clear and dry, 51-100% contamination with <1mm, friction coefficient 0.70. Runway 34: deposit not reported, . UNNT 182330Z 19003MPS CAVOK 08/05 Q1008 R25/090070 R34/////// NOSIG RMK QFE746/0995
VFR 8°C / 5°C 190º 8kt >10km - Clouds and Visibility OK 1008 No Significant change. Runway 25: Clear and dry, 51-100% contamination with <1mm, friction coefficient 0.70. Runway 34: deposit not reported, . UNNT 182300Z 19004MPS CAVOK 08/05 Q1008 R25/090070 R34/////// NOSIG RMK QFE746/0995
VFR 8°C / 5°C 200º 6kt >10km - Clouds and Visibility OK 1008 No Significant change. Runway 25: Clear and dry, 51-100% contamination with <1mm, friction coefficient 0.70. Runway 34: deposit not reported, . UNNT 182230Z 20003MPS CAVOK 08/05 Q1008 R25/090070 R34/////// NOSIG RMK QFE746/0995

VFR

14°C / 5°C

[Daha fazla]
Rüzgar 250º 16kt Gust 25kt
Görünürlük >10km
Hava -
Bulutlar Scattered Clouds 5600ft
Basınç 1002
Değiştir No Significant change. Runway 25: Wet or puddles, 51-100% contamination with 1mm, friction coefficient 0.55. Runway 34: deposit not reported, .
Ham UNNT 191000Z 25008G13MPS 9999 SCT056CB 14/05 Q1002 R25/290155 R34/////// NOSIG RMK QFE742/0989

VFR

13°C / 7°C

[Daha fazla]
Rüzgar 200º 8kt
Görünürlük >10km
Hava -
Bulutlar Scattered Clouds 4400ft
Basınç 1002
Değiştir No Significant change. Runway 25: Wet or puddles, 51-100% contamination with 1mm, friction coefficient 0.55. Runway 34: deposit not reported, .
Ham UNNT 190930Z 20004MPS 9999 SCT044CB 13/07 Q1002 R25/290155 R34/////// NOSIG RMK QFE742/0989

VFR

11°C / 7°C

[Daha fazla]
Rüzgar 190º 10kt
Görünürlük >10km
Hava Light Showers Rain 3.00mm precipitation
Bulutlar Vertical Visibility of 0ft.
Basınç 1002
Değiştir No Significant change. Runway 25: Wet or puddles, 51-100% contamination with 1mm, friction coefficient 0.55. Runway 34: deposit not reported, .
Ham UNNT 190900Z 19005MPS 9999 -SHRA BKN053CB 11/07 Q1002 R25/290155 R34/////// NOSIG RMK QFE742/0989

VFR

12°C / 5°C

[Daha fazla]
Rüzgar 190º 10kt
Görünürlük 9000m
Hava Light Showers Rain 3.00mm precipitation
Bulutlar Vertical Visibility of 0ft.
Basınç 1002
Değiştir No Significant change. Runway 25: Clear and dry, 51-100% contamination with <1mm, friction coefficient 0.70. Runway 34: deposit not reported, .
Ham UNNT 190830Z 19005MPS 9000 -SHRA OVC035CB 12/05 Q1002 R25/090070 R34/////// NOSIG RMK QFE742/0989

VFR

13°C / 4°C

[Daha fazla]
Rüzgar 170º 10kt
Görünürlük >10km
Hava -
Bulutlar Scattered Clouds 5400ft
Basınç 1002
Değiştir No Significant change. Runway 25: Clear and dry, 51-100% contamination with <1mm, friction coefficient 0.70. Runway 34: deposit not reported, .
Ham UNNT 190800Z 17005MPS 9999 SCT054CB 13/04 Q1002 R25/090070 R34/////// NOSIG RMK QFE742/0989

VFR

12°C / 4°C

[Daha fazla]
Rüzgar 160º 10kt
Görünürlük >10km
Hava Light Rain 1.00mm precipitation
Bulutlar Vertical Visibility of 0ft.
Basınç 1002
Değiştir No Significant change. Runway 25: Clear and dry, 51-100% contamination with <1mm, friction coefficient 0.70. Runway 34: deposit not reported, .
Ham UNNT 190730Z 16005MPS 9999 -RA NSC 12/04 Q1002 R25/090070 R34/////// NOSIG RMK QFE742/0989

VFR

12°C / 3°C

[Daha fazla]
Rüzgar 160º 14kt
Görünürlük >10km
Hava -
Bulutlar Clouds and Visibility OK
Basınç 1003
Değiştir No Significant change. Runway 25: Clear and dry, 51-100% contamination with <1mm, friction coefficient 0.70. Runway 34: deposit not reported, .
Ham UNNT 190700Z 16007MPS CAVOK 12/03 Q1003 R25/090070 R34/////// NOSIG RMK QFE742/0989

VFR

12°C / 2°C

[Daha fazla]
Rüzgar 160º 16kt
Görünürlük >10km
Hava -
Bulutlar Clouds and Visibility OK
Basınç 1003
Değiştir No Significant change. Runway 25: Clear and dry, 51-100% contamination with <1mm, friction coefficient 0.70. Runway 34: deposit not reported, .
Ham UNNT 190630Z 16008MPS CAVOK 12/02 Q1003 R25/090070 R34/////// NOSIG RMK QFE742/0990

VFR

12°C / 3°C

[Daha fazla]
Rüzgar 170º 14kt
Görünürlük >10km
Hava -
Bulutlar Clouds and Visibility OK
Basınç 1004
Değiştir No Significant change. Runway 25: Clear and dry, 51-100% contamination with <1mm, friction coefficient 0.70. Runway 34: deposit not reported, .
Ham UNNT 190600Z 17007MPS CAVOK 12/03 Q1004 R25/090070 R34/////// NOSIG RMK QFE743/0991

VFR

11°C / 3°C

[Daha fazla]
Rüzgar 170º 12kt
Görünürlük >10km
Hava -
Bulutlar Clouds and Visibility OK
Basınç 1004
Değiştir No Significant change. Runway 25: Clear and dry, 51-100% contamination with <1mm, friction coefficient 0.70. Runway 34: deposit not reported, .
Ham UNNT 190530Z 17006MPS CAVOK 11/03 Q1004 R25/090070 R34/////// NOSIG RMK QFE743/0991

VFR

11°C / 2°C

[Daha fazla]
Rüzgar 170º 12kt
Görünürlük >10km
Hava -
Bulutlar Clouds and Visibility OK
Basınç 1005
Değiştir No Significant change. Runway 25: Clear and dry, 51-100% contamination with <1mm, friction coefficient 0.70. Runway 34: deposit not reported, .
Ham UNNT 190500Z 17006MPS CAVOK 11/02 Q1005 R25/090070 R34/////// NOSIG RMK QFE744/0992

VFR

11°C / 2°C

[Daha fazla]
Rüzgar 180º 12kt
Görünürlük >10km
Hava -
Bulutlar Clouds and Visibility OK
Basınç 1005
Değiştir No Significant change. Runway 25: Clear and dry, 51-100% contamination with <1mm, friction coefficient 0.70. Runway 34: deposit not reported, .
Ham UNNT 190430Z 18006MPS CAVOK 11/02 Q1005 R25/090070 R34/////// NOSIG RMK QFE744/0992

VFR

11°C / 3°C

[Daha fazla]
Rüzgar 180º 12kt
Görünürlük >10km
Hava -
Bulutlar Clouds and Visibility OK
Basınç 1005
Değiştir No Significant change. Runway 25: Clear and dry, 51-100% contamination with <1mm, friction coefficient 0.70. Runway 34: deposit not reported, .
Ham UNNT 190400Z 18006MPS CAVOK 11/03 Q1005 R25/090070 R34/////// NOSIG RMK QFE744/0992

VFR

10°C / 3°C

[Daha fazla]
Rüzgar 190º 12kt
Görünürlük >10km
Hava -
Bulutlar Clouds and Visibility OK
Basınç 1006
Değiştir No Significant change. Runway 25: Clear and dry, 51-100% contamination with <1mm, friction coefficient 0.70. Runway 34: deposit not reported, .
Ham UNNT 190330Z 19006MPS CAVOK 10/03 Q1006 R25/090070 R34/////// NOSIG RMK QFE744/0992

VFR

10°C / 3°C

[Daha fazla]
Rüzgar 190º 10kt
Görünürlük >10km
Hava -
Bulutlar Clouds and Visibility OK
Basınç 1006
Değiştir No Significant change. Runway 25: Clear and dry, 51-100% contamination with <1mm, friction coefficient 0.70. Runway 34: deposit not reported, .
Ham UNNT 190300Z 19005MPS CAVOK 10/03 Q1006 R25/090070 R34/////// NOSIG RMK QFE744/0993

VFR

10°C / 4°C

[Daha fazla]
Rüzgar 180º 8kt
Görünürlük >10km
Hava -
Bulutlar Clouds and Visibility OK
Basınç 1006
Değiştir No Significant change. Runway 25: Clear and dry, 51-100% contamination with <1mm, friction coefficient 0.70. Runway 34: deposit not reported, .
Ham UNNT 190230Z 18004MPS CAVOK 10/04 Q1006 R25/090070 R34/////// NOSIG RMK QFE744/0993

VFR

9°C / 4°C

[Daha fazla]
Rüzgar 180º 8kt
Görünürlük >10km
Hava -
Bulutlar Clouds and Visibility OK
Basınç 1006
Değiştir No Significant change. Runway 25: Clear and dry, 51-100% contamination with <1mm, friction coefficient 0.70. Runway 34: deposit not reported, .
Ham UNNT 190200Z 18004MPS CAVOK 09/04 Q1006 R25/090070 R34/////// NOSIG RMK QFE745/0993

VFR

9°C / 5°C

[Daha fazla]
Rüzgar 170º 8kt
Görünürlük >10km
Hava -
Bulutlar Clouds and Visibility OK
Basınç 1007
Değiştir No Significant change. Runway 25: Clear and dry, 51-100% contamination with <1mm, friction coefficient 0.70. Runway 34: deposit not reported, .
Ham UNNT 190130Z 17004MPS CAVOK 09/05 Q1007 R25/090070 R34/////// NOSIG RMK QFE745/0993

VFR

8°C / 5°C

[Daha fazla]
Rüzgar 180º 6kt
Görünürlük >10km
Hava -
Bulutlar Clouds and Visibility OK
Basınç 1007
Değiştir No Significant change. Runway 25: Clear and dry, 51-100% contamination with <1mm, friction coefficient 0.70. Runway 34: deposit not reported, .
Ham UNNT 190100Z 18003MPS CAVOK 08/05 Q1007 R25/090070 R34/////// NOSIG RMK QFE745/0994

VFR

8°C / 5°C

[Daha fazla]
Rüzgar 180º 6kt
Görünürlük >10km
Hava -
Bulutlar Clouds and Visibility OK
Basınç 1007
Değiştir No Significant change. Runway 25: Clear and dry, 51-100% contamination with <1mm, friction coefficient 0.70. Runway 34: deposit not reported, .
Ham UNNT 190030Z 18003MPS CAVOK 08/05 Q1007 R25/090070 R34/////// NOSIG RMK QFE745/0994

VFR

8°C / 5°C

[Daha fazla]
Rüzgar 180º 6kt
Görünürlük >10km
Hava -
Bulutlar Clouds and Visibility OK
Basınç 1007
Değiştir No Significant change. Runway 25: Clear and dry, 51-100% contamination with <1mm, friction coefficient 0.70. Runway 34: deposit not reported, .
Ham UNNT 190000Z 18003MPS CAVOK 08/05 Q1007 R25/090070 R34/////// NOSIG RMK QFE746/0994

VFR

8°C / 5°C

[Daha fazla]
Rüzgar 190º 6kt
Görünürlük >10km
Hava -
Bulutlar Clouds and Visibility OK
Basınç 1008
Değiştir No Significant change. Runway 25: Clear and dry, 51-100% contamination with <1mm, friction coefficient 0.70. Runway 34: deposit not reported, .
Ham UNNT 182330Z 19003MPS CAVOK 08/05 Q1008 R25/090070 R34/////// NOSIG RMK QFE746/0995

VFR

8°C / 5°C

[Daha fazla]
Rüzgar 190º 8kt
Görünürlük >10km
Hava -
Bulutlar Clouds and Visibility OK
Basınç 1008
Değiştir No Significant change. Runway 25: Clear and dry, 51-100% contamination with <1mm, friction coefficient 0.70. Runway 34: deposit not reported, .
Ham UNNT 182300Z 19004MPS CAVOK 08/05 Q1008 R25/090070 R34/////// NOSIG RMK QFE746/0995

VFR

8°C / 5°C

[Daha fazla]
Rüzgar 200º 6kt
Görünürlük >10km
Hava -
Bulutlar Clouds and Visibility OK
Basınç 1008
Değiştir No Significant change. Runway 25: Clear and dry, 51-100% contamination with <1mm, friction coefficient 0.70. Runway 34: deposit not reported, .
Ham UNNT 182230Z 20003MPS CAVOK 08/05 Q1008 R25/090070 R34/////// NOSIG RMK QFE746/0995

55.03°K 82.6°D (UNNT) için TAF

From till


From till Wind 220º 16kt. Gust 29kt. Visibility 8000m. Light Showers Rain . Broken Clouds 4000ft.
Temporarly from till Wind 180º 12kt. Gust 25kt.
Becoming from till Wind 240º 6kt. Gust 16kt. Visibility 8000m. Light Showers Rain . Broken Clouds 4000ft.
Becoming from till Wind 230º 16kt. Gust 29kt. Visibility 8000m. Light Showers Rain . Broken Clouds 1600ft.
Temporarly from till Wind 250º 23kt. Gust 39kt. Broken Clouds 1000ft. Broken Clouds 1600ft.

Ham: TAF UNNT 190800Z 1909/2009 22008G15MPS 8000 -SHRA BKN040CB TEMPO 1909/1911 18006G13MPS BECMG 1912/1915 24003G08MPS BECMG 1920/1923 23008G15MPS BKN016CB TEMPO 2002/2009 25012G20MPS BKN010 BKN016CB

55.03°K 82.6°D için şu anki uydu ve yağmur görüntüleri

Konum işaretleyici 55.03°K 82.6°D üzerine yerleştirilir. [Daha fazla]

Gerçek zamanlı uydu görüntüsü gündüz süresince görülür ışığı gece süresince kızılötesi ışınım ile birleştirir. Gece kızılötesi ışınım sıcaklık farklarını algılayabildiğinden dolayı görüntü karanlık değildir. Ancak düşük bulutları ve sisi yer sıcaklığından ayırmak zordur ve bu nedenle gece boyunca neredeyse görünmez olabilirler. Avrupa için Meteosat uydu görüntüleri gerçek zamanlı olarak her 5 dakikada bir güncellenir. GOES-16/GOES-17 (Kuzey ve Güney Amerika) ve Himawari (Asya) görüntüleri her 10 dakikada bir güncellenir.

Copyright 2021 EUMETSAT / meteoblue. / Copyright 2021 meteoblue

55.03°K 82.6°D için radar ve yağış nowcast

çiseleyen yağmur
Hafif
Orta
Ağır
Çok ağır
Selamlamak

Konum işaretleyicisi 55.03°K 82.6°D üzerine yerleştirilir. Bu animasyon son saat içerisindeki yağış radarını ve 1h tahminini gösterir. Radar için çiseleyen yağmur veya hafif kar yağışı görünmez olabilir. Yağış yoğunluğu açık maviden turuncuya değişen renk kodludur.